[[{"header":{"parameterUnit":"m.s-1","parameterCategory":1,"la1":30.2991,"la2":30.254,"lo1":-89.0895,"lo2":-89.0444,"dy":0.0017,"dx":0.0017,"nx":28,"ny":28,"refTime":"2024-04-04T21:00:00:Z","depth":0,"parameterNumber":2,"parameterNumberName":"U-component_of_WINDS"},"data":[0,0,0,0,0,0,0,0,0,0,0,0,0,0,0,0,0,0,0,0,0,0,0,0,0,0,0,0,0,0,0,0,0,0,0,0,0,0,0,0,0,0,0,0,0,0,0,0,0,0,0,0,0,0,0,0,0,0,0.7496,0.7496,0,0.7546,0.7546,0.7547,0.7664,0.7667,0.7669,0.7671,0.7719,0.7718,0.7717,0,0,0,0,0,0,0,0,0,0,0,0,0,0.7498,0.7498,0.7496,0.7496,0.7497,0.7546,0.7546,0.7547,0.7664,0.7667,0.767,0.7673,0.7719,0.7718,0.7717,0,0,0,0,0,0,0,0,0,0,0,0,0,0.7517,0.7498,0.7496,0.7561,0.7568,0.7545,0.7546,0.7547,0.7663,0.7667,0.7671,0.7674,0.772,0.7718,0.7717,0.7634,0,0,0.7712,0.7711,0,0,0,0,0,0,0,0,0.7516,0.7517,0.7551,0.7557,0.7564,0.7603,0.7565,0.7576,0.7662,0.7627,0.7671,0.7676,0.7677,0.7679,0.7681,0.7636,0.7638,0.7712,0.7711,0.771,0.771,0,0,0,0,0,0,0,0.7515,0.7516,0.7515,0.7551,0.7559,0.7587,0.7594,0.7567,0.763,0.763,0.7639,0.7643,0.7681,0.7682,0.7682,0.7639,0.7712,0.7711,0.771,0.7709,0.7529,0.7525,0,0,0,0,0,0,0.7504,0.7514,0.7514,0.7517,0.7549,0.7584,0.7592,0.7586,0.7631,0.7642,0.764,0.7649,0.7682,0.7684,0.7685,0.759,0.771,0.7709,0.7708,0.7532,0.7528,0.7524,0,0,0,0,0,0,0.7504,0.7503,0.7512,0.7518,0.7521,0.758,0.7573,0.7585,0.7586,0.7639,0.765,0.7629,0.7685,0.7687,0.7646,0.7593,0.7708,0.7707,0.7537,0.7531,0.7526,0.74,0,0,0,0,0,0,0.7504,0.7503,0.7472,0.7516,0.752,0.7472,0.757,0.7584,0.7583,0.7595,0.7632,0.7641,0.7688,0.7647,0.7644,0.7593,0.7706,0.7542,0.7534,0.7528,0.7409,0.7391,0.7375,0,0,0,0,0,0.7503,0.7434,0.747,0.7469,0.7484,0.7469,0.7472,0.7528,0.7579,0.7548,0.7582,0.764,0.76,0.7642,0.764,0.7587,0.7546,0.7537,0.7528,0.7417,0.7395,0.7376,0,0,0,0,0,0,0.7381,0.7441,0.7482,0.7425,0.7441,0.7489,0.7453,0.7503,0.7504,0.7515,0.7585,0.7592,0.7541,0.7561,0.7607,0.751,0.7582,0.7572,0.7498,0.7478,0.7461,0.7457,0.7704,0,0,0,0,0,0.7348,0.7332,0.7385,0.733,0.7336,0.7392,0.7388,0.7431,0.745,0.7457,0.7489,0.7504,0.7495,0.7488,0.7482,0.7413,0.7422,0.7376,0.7359,0.7345,0.7335,0.7299,0.7279,0.7495,0.7495,0.7495,0,0,0.7278,0.7309,0.7295,0.7306,0.7324,0.7305,0.7398,0.7374,0.736,0.7454,0.7417,0.744,0.7462,0.7406,0.7383,0.7421,0.7278,0.7333,0.7322,0.732,0.7288,0.7268,0.7249,0.7489,0.749,0.7491,0,0,0.7142,0.7164,0.712,0.7137,0.7163,0.7201,0.719,0.7231,0.725,0.7215,0.7284,0.7269,0.7252,0.7265,0.7269,0.7138,0.719,0.7134,0.7044,0.7008,0.6991,0.6976,0.6929,0.6911,0.7124,0.7124,0.7124,0,0.7052,0.7027,0.7091,0.7063,0.7066,0.7151,0.7106,0.7119,0.7141,0.714,0.7182,0.7163,0.7184,0.7132,0.71,0.7101,0.709,0.7129,0.6989,0.6975,0.6962,0.6917,0.6899,0.7117,0.7118,0.7119,0.7119,0,0.6915,0.6896,0.6858,0.6879,0.6877,0.6841,0.6898,0.6889,0.6931,0.6965,0.6927,0.6955,0.6957,0.6948,0.6989,0.6902,0.6924,0.6976,0.7051,0.6933,0.6892,0.6875,0.7107,0.7109,0.7112,0.7113,0,0,0.6702,0.6759,0.6744,0.6754,0.6789,0.6776,0.6743,0.6746,0.6736,0.6749,0.6722,0.6707,0.6755,0.676,0.6803,0.6772,0.6665,0.6828,0.683,0.6796,0.6569,0.6529,0.6508,0.6701,0.6698,0.6695,0.6567,0,0.6573,0.6522,0.6578,0.6514,0.6498,0.6579,0.655,0.6568,0.6598,0.6588,0.6621,0.6609,0.6674,0.6678,0.665,0.6684,0.662,0.6694,0.6675,0.6674,0.6666,0.6487,0.6445,0.6322,0.6552,0.6549,0.6547,0,0.6416,0.6422,0.6357,0.6397,0.6392,0.6365,0.6372,0.6362,0.6383,0.6408,0.6413,0.6466,0.6435,0.6508,0.6467,0.6515,0.6511,0.6526,0.6523,0.6523,0.6602,0.6481,0.6285,0.6266,0.6523,0.6525,0.6526,0,0.6266,0.6258,0.6218,0.6225,0.627,0.6249,0.6267,0.6293,0.6291,0.6296,0.6296,0.6297,0.6298,0.6297,0.6349,0.6397,0.63,0.6378,0.6318,0.6317,0.6293,0.6294,0.6093,0.6292,0.6292,0.6293,0.6293,0,0.6116,0.6072,0.6152,0.6127,0.608,0.6146,0.6097,0.6123,0.6145,0.6126,0.6196,0.6176,0.6246,0.6233,0.6273,0.6232,0.6232,0.6249,0.626,0.6243,0.624,0.624,0.6249,0.6288,0.6289,0.629,0.6291,0,0.594,0.5992,0.5953,0.6,0.601,0.5974,0.6013,0.5991,0.6027,0.6001,0.5999,0.6054,0.6042,0.6094,0.6091,0.6118,0.6056,0.6082,0.6049,0.6056,0.5994,0.5998,0.5785,0.576,0.5975,0.5973,0.5971,0,0.584,0.5809,0.5852,0.5845,0.586,0.5847,0.5846,0.5909,0.5904,0.5927,0.5902,0.5897,0.5896,0.5873,0.5912,0.591,0.5936,0.5861,0.5936,0.5919,0.5933,0.5934,0.5931,0.5845,0.5842,0.584,0.5838,0,0.5658,0.5685,0.5681,0.5686,0.5682,0.5689,0.57,0.569,0.5758,0.5749,0.5739,0.5738,0.5736,0.5729,0.5735,0.5753,0.5805,0.5815,0.5801,0.5782,0.5763,0.5771,0.6005,0.5819,0.5821,0.5822,0.5823,0.5824,0.5517,0.5492,0.5519,0.5512,0.5528,0.5536,0.5518,0.5552,0.5545,0.5549,0.5586,0.5568,0.5591,0.5605,0.5617,0.5603,0.5638,0.5618,0.5613,0.5606,0.5595,0.5766,0.5604,0.5605,0.5605,0.5606,0.5606,0,0.5337,0.5358,0.5352,0.5365,0.536,0.5412,0.5427,0.5418,0.5402,0.5419,0.5417,0.5405,0.5399,0.5437,0.5436,0.5418,0.5442,0.5415,0.5416,0.5419,0.5564,0.5576,0.5395,0.5395,0.5395,0.5395,0.5395,0.5395,0.5243,0.5205,0.5235,0.5204,0.5226,0.521,0.5214,0.5222,0.5236,0.522,0.5216,0.5241,0.5266,0.5267,0.5264,0.5275,0.5271,0.5235,0.5254,0.5389,0.5409,0.5429,0.544,0.5234,0.5234,0.5111,0.511,0.5109]},{"header":{"parameterUnit":"m.s-1","parameterCategory":1,"la1":30.2991,"la2":30.254,"lo1":-89.0895,"lo2":-89.0444,"dy":0.0017,"dx":0.0017,"nx":28,"ny":28,"refTime":"2024-04-04T21:00:00:Z","depth":0,"parameterNumber":3,"parameterNumberName":"V-component_of_WINDS"},"data":[0,0,0,0,0,0,0,0,0,0,0,0,0,0,0,0,0,0,0,0,0,0,0,0,0,0,0,0,0,0,0,0,0,0,0,0,0,0,0,0,0,0,0,0,0,0,0,0,0,0,0,0,0,0,0,0,0,0,-0.2216,-0.2216,0,-0.2209,-0.2208,-0.2208,-0.223,-0.223,-0.2231,-0.2232,-0.2224,-0.2223,-0.2222,0,0,0,0,0,0,0,0,0,0,0,0,0,-0.2251,-0.225,-0.2216,-0.2216,-0.2216,-0.2209,-0.2208,-0.2208,-0.223,-0.2231,-0.2231,-0.2232,-0.2224,-0.2223,-0.2222,0,0,0,0,0,0,0,0,0,0,0,0,0,-0.2239,-0.225,-0.2216,-0.2226,-0.2227,-0.2209,-0.2208,-0.2208,-0.223,-0.2231,-0.2232,-0.2232,-0.2224,-0.2223,-0.2222,-0.2194,0,0,-0.2218,-0.2218,0,0,0,0,0,0,0,0,-0.2239,-0.2237,-0.2224,-0.2225,-0.2226,-0.2221,-0.2218,-0.2204,-0.2229,-0.2228,-0.2232,-0.2233,-0.2222,-0.2221,-0.2217,-0.2194,-0.2194,-0.2218,-0.2217,-0.2217,-0.2216,0,0,0,0,0,0,0,-0.224,-0.2238,-0.2213,-0.2224,-0.2225,-0.2231,-0.223,-0.2215,-0.222,-0.2229,-0.223,-0.2229,-0.2223,-0.2219,-0.2217,-0.2193,-0.2218,-0.2217,-0.2216,-0.2216,-0.215,-0.2149,0,0,0,0,0,0,-0.224,-0.2238,-0.2213,-0.2213,-0.2235,-0.2229,-0.2229,-0.2222,-0.222,-0.2221,-0.2228,-0.223,-0.222,-0.2219,-0.2217,-0.2187,-0.2217,-0.2216,-0.2215,-0.2151,-0.215,-0.2149,0,0,0,0,0,0,-0.224,-0.2237,-0.2214,-0.2226,-0.2224,-0.2228,-0.222,-0.2221,-0.2217,-0.222,-0.2221,-0.2223,-0.2221,-0.2219,-0.2201,-0.2187,-0.2215,-0.2214,-0.2152,-0.2151,-0.2149,-0.2126,0,0,0,0,0,0,-0.2241,-0.2237,-0.2226,-0.2226,-0.2223,-0.2197,-0.2219,-0.222,-0.2215,-0.2217,-0.2215,-0.2216,-0.2222,-0.2202,-0.2199,-0.2186,-0.2213,-0.2153,-0.2152,-0.215,-0.2128,-0.2123,-0.212,0,0,0,0,0,-0.2242,-0.2219,-0.2226,-0.2222,-0.2209,-0.2196,-0.2194,-0.2202,-0.2214,-0.2203,-0.2205,-0.2216,-0.2189,-0.22,-0.2197,-0.2183,-0.2154,-0.2152,-0.215,-0.2129,-0.2124,-0.212,0,0,0,0,0,0,-0.2217,-0.2219,-0.2226,-0.2202,-0.2199,-0.2199,-0.2187,-0.2195,-0.2188,-0.2191,-0.22,-0.2199,-0.218,-0.2179,-0.2192,-0.2158,-0.2174,-0.2171,-0.2159,-0.2154,-0.2151,-0.2152,-0.2212,0,0,0,0,0,-0.2209,-0.2198,-0.22,-0.2179,-0.2177,-0.2182,-0.2176,-0.2182,-0.2179,-0.2178,-0.2178,-0.2175,-0.2166,-0.216,-0.2151,-0.2127,-0.2128,-0.2116,-0.2112,-0.2109,-0.2107,-0.2097,-0.2092,-0.2141,-0.2141,-0.2142,0,0,-0.2192,-0.2192,-0.2184,-0.2174,-0.2172,-0.2161,-0.218,-0.2167,-0.216,-0.2176,-0.2159,-0.2159,-0.2156,-0.2136,-0.2127,-0.2135,-0.2094,-0.2106,-0.2104,-0.2103,-0.2094,-0.2089,-0.2085,-0.214,-0.214,-0.214,0,0,-0.2156,-0.2153,-0.2137,-0.2135,-0.2132,-0.2136,-0.2132,-0.2132,-0.2133,-0.2116,-0.2129,-0.212,-0.2103,-0.2102,-0.2099,-0.2064,-0.2074,-0.2061,-0.2041,-0.2031,-0.2027,-0.2024,-0.2014,-0.201,-0.2058,-0.2058,-0.2058,0,-0.2135,-0.2119,-0.2127,-0.2114,-0.2111,-0.2125,-0.2109,-0.2106,-0.2101,-0.2098,-0.2107,-0.2089,-0.2087,-0.2068,-0.206,-0.2056,-0.2053,-0.2062,-0.2027,-0.2024,-0.2021,-0.2012,-0.2008,-0.2057,-0.2057,-0.2057,-0.2057,0,-0.2095,-0.2084,-0.2071,-0.2067,-0.2061,-0.2046,-0.2053,-0.2047,-0.2053,-0.2057,-0.2041,-0.204,-0.2033,-0.2028,-0.2034,-0.201,-0.2016,-0.2026,-0.2042,-0.2015,-0.2006,-0.2003,-0.2055,-0.2055,-0.2056,-0.2056,0,0,-0.2043,-0.2045,-0.204,-0.204,-0.2038,-0.203,-0.2017,-0.201,-0.2006,-0.2001,-0.1992,-0.1979,-0.1989,-0.1985,-0.1991,-0.1982,-0.1958,-0.1994,-0.1994,-0.1989,-0.1934,-0.1929,-0.1924,-0.1964,-0.1963,-0.1963,-0.1936,0,-0.201,-0.1988,-0.1996,-0.1974,-0.1965,-0.1979,-0.1968,-0.1967,-0.1969,-0.1963,-0.1966,-0.1957,-0.1969,-0.1968,-0.1959,-0.1963,-0.1947,-0.1964,-0.1957,-0.1957,-0.1959,-0.1919,-0.1912,-0.1887,-0.1932,-0.1931,-0.1931,0,-0.1968,-0.1964,-0.1941,-0.1944,-0.1941,-0.193,-0.1927,-0.1919,-0.1919,-0.1921,-0.1918,-0.1927,-0.1915,-0.1931,-0.1916,-0.1927,-0.1924,-0.1926,-0.1925,-0.1926,-0.1943,-0.1921,-0.1878,-0.1875,-0.1925,-0.1926,-0.1926,0,-0.1936,-0.1924,-0.191,-0.1909,-0.1911,-0.1904,-0.1904,-0.1904,-0.1901,-0.1897,-0.1895,-0.189,-0.1888,-0.1884,-0.1891,-0.1901,-0.1876,-0.1891,-0.188,-0.1879,-0.1875,-0.1876,-0.1833,-0.187,-0.187,-0.187,-0.187,0,-0.19,-0.1886,-0.1897,-0.1888,-0.1874,-0.1883,-0.1868,-0.187,-0.187,-0.1863,-0.1874,-0.1867,-0.1876,-0.187,-0.1875,-0.1864,-0.1862,-0.1865,-0.1867,-0.1865,-0.1865,-0.1865,-0.1868,-0.1869,-0.1869,-0.1869,-0.1869,0,-0.1862,-0.1868,-0.1854,-0.1858,-0.1858,-0.1848,-0.1851,-0.1844,-0.1848,-0.1839,-0.1837,-0.1843,-0.1837,-0.1843,-0.1837,-0.1841,-0.1826,-0.1829,-0.1827,-0.1828,-0.1817,-0.1819,-0.1774,-0.177,-0.1807,-0.1807,-0.1807,0,-0.184,-0.183,-0.1833,-0.1829,-0.1829,-0.1822,-0.1819,-0.1828,-0.1825,-0.1824,-0.1817,-0.1812,-0.1808,-0.1798,-0.1802,-0.1798,-0.1803,-0.1788,-0.1802,-0.1802,-0.1806,-0.1807,-0.1807,-0.1785,-0.1785,-0.1784,-0.1784,0,-0.18,-0.1804,-0.1799,-0.1796,-0.1792,-0.179,-0.1789,-0.1785,-0.1794,-0.179,-0.1784,-0.1781,-0.1776,-0.1771,-0.1769,-0.177,-0.1779,-0.1779,-0.1777,-0.1776,-0.1776,-0.1778,-0.1821,-0.1781,-0.1781,-0.1781,-0.1781,-0.1782,-0.1771,-0.1764,-0.1765,-0.176,-0.176,-0.1759,-0.1754,-0.1757,-0.1753,-0.1749,-0.1754,-0.1748,-0.1749,-0.1746,-0.1746,-0.1742,-0.1748,-0.1744,-0.1743,-0.1743,-0.1742,-0.1775,-0.1741,-0.1741,-0.1741,-0.1741,-0.1741,0,-0.1734,-0.1736,-0.1731,-0.173,-0.1726,-0.1735,-0.1734,-0.1731,-0.1725,-0.1725,-0.1722,-0.1716,-0.1712,-0.1716,-0.1713,-0.1709,-0.1713,-0.1708,-0.171,-0.171,-0.1735,-0.1739,-0.1705,-0.1705,-0.1705,-0.1705,-0.1705,-0.1705,-0.1714,-0.1704,-0.1708,-0.1698,-0.17,-0.1694,-0.1693,-0.1693,-0.1693,-0.1687,-0.1684,-0.1686,-0.1689,-0.1686,-0.1683,-0.1685,-0.1684,-0.1678,-0.1681,-0.1704,-0.1708,-0.1712,-0.1715,-0.1677,-0.1677,-0.1656,-0.1656,-0.1656]}]]